TimeAEST,TemperatureF,Dew PointF,Humidity,Sea Level PressureIn,VisibilityMPH,Wind Direction,Wind SpeedMPH,Gust SpeedMPH,PrecipitationIn,Events,Conditions,WindDirDegrees,DateUTC
12:00 AM,76,71,80,30.06,,SE,27.6,,,,,130,2013-04-29 14:00:00
12:00 AM,77.0,71.6,83,30.06,-9999.0,SE,27.6,-,N/A,,Unknown,130,2013-04-29 14:00:00
12:30 AM,75.2,71.6,89,30.04,-9999.0,SE,26.5,-,N/A,,Unknown,130,2013-04-29 14:30:00
1:00 AM,75.2,71.6,89,30.04,-9999.0,SE,27.6,-,N/A,,Unknown,130,2013-04-29 15:00:00
1:30 AM,75.2,71.6,89,30.04,-9999.0,SE,26.5,-,N/A,,Unknown,130,2013-04-29 15:30:00
2:00 AM,75.2,71.6,89,30.04,-9999.0,SE,28.8,-,N/A,,Unknown,130,2013-04-29 16:00:00
2:30 AM,75.2,71.6,89,30.01,-9999.0,SE,29.9,-,N/A,,Unknown,130,2013-04-29 16:30:00
3:00 AM,75,71,84,30.02,,SE,28.8,,,,,140,2013-04-29 17:00:00
3:00 AM,75.2,71.6,89,30.01,-9999.0,SE,28.8,-,N/A,,Unknown,140,2013-04-29 17:00:00
3:30 AM,75.2,71.6,89,30.01,-9999.0,SE,27.6,-,N/A,,Unknown,140,2013-04-29 17:30:00
4:00 AM,75.2,71.6,89,30.01,-9999.0,SE,28.8,-,N/A,,Unknown,130,2013-04-29 18:00:00
4:30 AM,75.2,71.6,89,30.01,-9999.0,SE,26.5,-,N/A,,Unknown,130,2013-04-29 18:30:00
5:00 AM,75.2,71.6,89,30.01,-9999.0,SE,27.6,-,N/A,,Unknown,130,2013-04-29 19:00:00
5:30 AM,75.2,71.6,89,30.01,-9999.0,SE,26.5,-,N/A,,Unknown,140,2013-04-29 19:30:00
6:00 AM,75.2,71.6,89,30.04,-9999.0,SE,25.3,-,N/A,,Unknown,130,2013-04-29 20:00:00
6:30 AM,73.4,71.6,94,30.01,-9999.0,SSE,23.0,-,N/A,,Unknown,150,2013-04-29 20:30:00
7:00 AM,75.2,71.6,89,30.04,-9999.0,SE,25.3,-,N/A,,Unknown,130,2013-04-29 21:00:00
7:30 AM,73.4,69.8,88,30.04,-9999.0,SE,24.2,-,N/A,,Unknown,140,2013-04-29 21:30:00
8:00 AM,73.4,71.6,94,30.04,-9999.0,SSE,24.2,-,N/A,,Unknown,150,2013-04-29 22:00:00
8:30 AM,75.2,71.6,89,30.06,-9999.0,SSE,26.5,-,N/A,,Unknown,150,2013-04-29 22:30:00
9:00 AM,75,72,87,30.07,,SSE,26.5,,,,,150,2013-04-29 23:00:00
9:00 AM,75.2,71.6,89,30.06,-9999.0,SSE,26.5,-,N/A,,Unknown,150,2013-04-29 23:00:00
9:30 AM,75.2,71.6,89,30.06,-9999.0,SSE,24.2,-,N/A,,Unknown,150,2013-04-29 23:30:00
10:00 AM,75.2,71.6,89,30.06,-9999.0,SSE,21.9,-,N/A,,Unknown,150,2013-04-30 00:00:00
10:30 AM,77.0,73.4,89,30.06,-9999.0,SSE,25.3,-,N/A,,Unknown,150,2013-04-30 00:30:00
11:00 AM,77.0,73.4,89,30.06,-9999.0,SSE,24.2,-,N/A,,Unknown,150,2013-04-30 01:00:00
11:30 AM,77.0,73.4,89,30.04,-9999.0,SSE,23.0,-,N/A,,Unknown,150,2013-04-30 01:30:00
12:00 PM,76,72,86,30.05,,SSE,21.9,,,,,150,2013-04-30 02:00:00
12:00 PM,75.2,73.4,94,30.04,-9999.0,SSE,21.9,-,N/A,,Unknown,150,2013-04-30 02:00:00
12:30 PM,75.2,73.4,94,30.04,-9999.0,SSE,24.2,-,N/A,,Unknown,150,2013-04-30 02:30:00
1:00 PM,77.0,73.4,89,30.01,-9999.0,SSE,24.2,-,N/A,,Unknown,150,2013-04-30 03:00:00
1:30 PM,77.0,73.4,89,30.01,-9999.0,SSE,25.3,-,N/A,,Unknown,150,2013-04-30 03:30:00
2:00 PM,77.0,73.4,89,30.01,-9999.0,SSE,23.0,-,N/A,,Unknown,150,2013-04-30 04:00:00
2:30 PM,77.0,73.4,89,30.01,-9999.0,SE,23.0,-,N/A,,Unknown,140,2013-04-30 04:30:00
3:00 PM,77,74,86,30.00,,SSE,23.0,,,,,150,2013-04-30 05:00:00
3:00 PM,77.0,73.4,89,29.98,-9999.0,SSE,23.0,-,N/A,,Unknown,150,2013-04-30 05:00:00
3:30 PM,75.2,73.4,94,29.98,-9999.0,SSE,23.0,-,N/A,,Unknown,150,2013-04-30 05:30:00
4:00 PM,77.0,73.4,89,29.98,-9999.0,SE,23.0,-,N/A,,Unknown,130,2013-04-30 06:00:00
4:30 PM,75.2,73.4,94,30.01,-9999.0,SE,24.2,-,N/A,,Unknown,130,2013-04-30 06:30:00
5:00 PM,75.2,73.4,94,30.01,-9999.0,SE,24.2,-,N/A,,Unknown,140,2013-04-30 07:00:00
5:30 PM,75.2,73.4,94,30.01,-9999.0,SE,23.0,-,N/A,,Unknown,140,2013-04-30 07:30:00
6:00 PM,75,73,92,30.02,,SE,25.3,,,,,140,2013-04-30 08:00:00
6:00 PM,75.2,73.4,94,30.01,-9999.0,SE,25.3,-,N/A,,Unknown,140,2013-04-30 08:00:00
6:30 PM,75.2,73.4,94,30.01,-9999.0,SE,23.0,-,N/A,,Unknown,140,2013-04-30 08:30:00
7:00 PM,75.2,73.4,94,30.04,-9999.0,SE,20.7,-,N/A,,Unknown,130,2013-04-30 09:00:00
7:30 PM,75.2,73.4,94,30.04,-9999.0,SE,19.6,-,N/A,,Unknown,130,2013-04-30 09:30:00
8:00 PM,75.2,73.4,94,30.04,-9999.0,SE,20.7,-,N/A,,Unknown,140,2013-04-30 10:00:00
8:30 PM,75.2,73.4,94,30.04,-9999.0,SE,23.0,-,N/A,,Unknown,140,2013-04-30 10:30:00
9:00 PM,76,73,89,30.06,,SE,20.7,,,,,140,2013-04-30 11:00:00
9:00 PM,75.2,73.4,94,30.04,-9999.0,SE,20.7,-,N/A,,Unknown,140,2013-04-30 11:00:00
9:30 PM,73.4,73.4,100,30.06,-9999.0,SE,20.7,-,N/A,,Unknown,130,2013-04-30 11:30:00
10:00 PM,75.2,75.2,100,30.04,-9999.0,SE,23.0,-,N/A,,Unknown,140,2013-04-30 12:00:00
10:30 PM,75.2,75.2,100,30.04,-9999.0,SE,21.9,-,N/A,,Unknown,140,2013-04-30 12:30:00
11:00 PM,75.2,73.4,94,30.04,-9999.0,SSE,20.7,-,N/A,,Unknown,150,2013-04-30 13:00:00
11:30 PM,75.2,75.2,100,30.04,-9999.0,SE,20.7,-,N/A,,Unknown,130,2013-04-30 13:30:00